User: anonymous   Login
Location: Colebrook
(42.0017°N, 73.0973°W)
Time: 13:12:28
(UTC-04:00)
Language:

Tiangong - Orbit

View from above orbital plane
View from above orbital plane
View from above satellite
View from above satellite

Ground track
Ground track

The orbit data is extracted from the following two-line orbital elements,

1 48274U 21035A   21296.14315635  .00008348  00000-0  10155-3 0  9992
2 48274  41.4700 222.7457 0006714 241.5504  80.8159 15.60692096 27702
Epoch (UTC): 23 October 2021 03:26:08
Eccentricity: 0.0006714
inclination: 41.4700°
perigee height: 381 km
apogee height: 390 km
right ascension of ascending node: 222.7457°
argument of perigee: 241.5504°
revolutions per day: 15.60692096
mean anomaly at epoch: 80.8159°
orbit number at epoch: 2770

The dashed part of the orbit path shows where the satellite is in the earth's shadow,  

DLR